Location: Pasarilla del Rebollar
(40.6790°N, 5.0062°W)
Time: 10:56:45
(UTC+00:00)

DMSP B5D2-2 - Pass Details

Date: 22 April 2026
Orbit: 785 x 800 km, 98.4° (Epoch: 15 May)

Event Time Altitude Azimuth Distance (km) Brightness Sun altitude
Exits shadow 03:26:11 47° 211° (SSW) 1,030 4.2 -21.7°
Maximum altitude 03:27:20 59° 259° (W) 905 4.0 -21.5°
Drops below altitude 10° 03:32:28 10° 339° (NNW) 2,352 6.7 -20.7°
Sets 03:34:50 0° 343° (NNW) 3,286 7.6 -20.4°
